Weather History for K4O4 - June, 2013

Change the Weather History Date:

Sunday, June 23, 2013

  Actual Average (KDEQ) Record (KDEQ)
Temperature  
Mean Temperature 82 °F 79 °F  
Max Temperature 91 °F 90 °F 100 °F (2009)
Min Temperature 73 °F 68 °F 54 °F (1902)
Cooling Degree Days 17 14  
Month to date cooling degree days 272  
Year to date cooling degree days 489  
Since 1 June cooling degree days 272  
Growing Degree Days 32 (Base 50)    
Moisture  
Dew Point 69 °F    
Average Humidity 67    
Maximum Humidity 88    
Minimum Humidity 46    
Precipitation  
Precipitation 0.00 in 0.16 in 1.80 in (1991)
Month to date precipitation 3.52  
Year to date precipitation 24.65  
Snow  
Snow 0.00 in - - ()
Month to date snowfall  
Since 1 June snowfall  
Since 1 July snowfall  
Snow Depth -    
Sea Level Pressure  
Sea Level Pressure 29.99 in    
Wind  
Wind Speed 8 mph (SSE)    
Max Wind Speed 13 mph    
Max Gust Speed 18 mph    
Visibility 10 miles    
Events      
T = Trace of Precipitation, MM = Missing Value Source: NWS Daily Summary

Daily Weather History Graph

Daily Weather History Graph

Search for Another Location

Airport or City:

Trip Planner

Search our weather history database for the weather conditions in past years. The results will help you decide how hot, cold, wet, or windy it might be!

Date:

Astronomy

Jun. 23, 2013 Rise Set
Actual Time 6:09 AM CDT 8:34 PM CDT
Civil Twilight 5:40 AM CDT 9:03 PM CDT
Nautical Twilight 5:04 AM CDT 9:39 PM CDT
Astronomical Twilight 4:24 AM CDT 10:18 PM CDT
Moon 8:51 PM CDT (6/23) 6:24 AM CDT (6/23)
Length of Visible Light 15h 23m
Length of Day
14h 24m
Full, 100% of the Moon is Illuminated
Jun 23
Full
Jun 29
Last Quarter
Jul 8
New
Jul 15
First Quarter
Jul 22
Full

Hourly Weather History & Observations

Time (CDT) Temp. Heat Index Dew Point Humidity Pressure Visibility Wind Dir Wind Speed Gust Speed Precip Events Conditions
12:15 AM 78.8 °F - 69.8 °F 74% 29.98 in 10.0 mi SSE 6.9 mph - N/A   Clear
12:35 AM 78.8 °F - 69.8 °F 74% 29.99 in 10.0 mi SE 8.1 mph - N/A   Clear
12:55 AM 77.0 °F - 69.8 °F 78% 29.98 in 10.0 mi SSE 9.2 mph - N/A   Clear
1:15 AM 77.0 °F - 69.8 °F 78% 29.98 in 10.0 mi SSE 8.1 mph - N/A   Clear
1:35 AM 77.0 °F - 69.8 °F 78% 29.98 in 10.0 mi SE 8.1 mph - N/A   Clear
1:55 AM 77.0 °F - 69.8 °F 78% 29.98 in 10.0 mi SE 5.8 mph - N/A   Clear
2:15 AM 77.0 °F - 69.8 °F 78% 29.97 in 10.0 mi SE 9.2 mph - N/A   Clear
2:35 AM 75.2 °F - 69.8 °F 83% 29.97 in 10.0 mi SE 8.1 mph - N/A   Clear
2:55 AM 75.2 °F - 69.8 °F 83% 29.97 in 10.0 mi SSE 6.9 mph - N/A   Clear
3:15 AM 75.2 °F - 69.8 °F 83% 29.98 in 10.0 mi SE 5.8 mph - N/A   Clear
3:35 AM 73.4 °F - 69.8 °F 88% 29.98 in 10.0 mi SE 5.8 mph - N/A   Clear
3:55 AM 73.4 °F - 69.8 °F 88% 29.99 in 10.0 mi SE 4.6 mph - N/A   Clear
4:15 AM 73.4 °F - 69.8 °F 88% 29.99 in 10.0 mi SE 6.9 mph - N/A   Clear
4:35 AM 73.4 °F - 69.8 °F 88% 29.99 in 10.0 mi SE 5.8 mph - N/A   Clear
4:55 AM 73.4 °F - 69.8 °F 88% 29.99 in 10.0 mi SSE 4.6 mph - N/A   Clear
5:15 AM 73.4 °F - 69.8 °F 88% 29.99 in 10.0 mi SE 6.9 mph - N/A   Clear
5:35 AM 73.4 °F - 69.8 °F 88% 29.99 in 10.0 mi SE 6.9 mph - N/A   Clear
5:55 AM 73.4 °F - 69.8 °F 88% 29.99 in 10.0 mi SE 6.9 mph - N/A   Clear
6:15 AM 73.4 °F - 69.8 °F 88% 29.99 in 7.0 mi SE 6.9 mph - N/A   Clear
6:35 AM 73.4 °F - 69.8 °F 88% 29.99 in 7.0 mi South 6.9 mph - N/A   Clear
6:55 AM 73.4 °F - 69.8 °F 88% 30.00 in 10.0 mi SSE 5.8 mph - N/A   Clear
7:15 AM 73.4 °F - 69.8 °F 88% 30.01 in 10.0 mi SE 5.8 mph - N/A   Clear
7:35 AM 75.2 °F - 69.8 °F 83% 30.01 in 10.0 mi SSE 4.6 mph - N/A   Clear
7:55 AM 77.0 °F - 69.8 °F 78% 30.02 in 10.0 mi South 6.9 mph - N/A   Clear
8:15 AM 78.8 °F - 69.8 °F 74% 30.03 in 10.0 mi South 6.9 mph - N/A   Clear
8:35 AM 78.8 °F - 69.8 °F 74% 30.03 in 10.0 mi South 5.8 mph - N/A   Clear
8:55 AM 80.6 °F 84.6 °F 71.6 °F 74% 30.03 in 10.0 mi South 5.8 mph - N/A   Clear
9:15 AM 80.6 °F 84.6 °F 71.6 °F 74% 30.04 in 10.0 mi South 5.8 mph - N/A   Clear
9:35 AM 80.6 °F 84.6 °F 71.6 °F 74% 30.03 in 10.0 mi South 6.9 mph - N/A   Clear
9:55 AM 82.4 °F 87.2 °F 71.6 °F 70% 30.04 in 10.0 mi South 6.9 mph - N/A   Clear
10:15 AM 82.4 °F 86.3 °F 69.8 °F 66% 30.03 in 10.0 mi South 8.1 mph - N/A   Clear
10:35 AM 84.2 °F 87.3 °F 68.0 °F 58% 30.03 in 10.0 mi SSW 10.4 mph - N/A   Clear
10:55 AM 86.0 °F 89.4 °F 68.0 °F 55% 30.03 in 10.0 mi South 10.4 mph - N/A   Clear
11:15 AM 86.0 °F 89.4 °F 68.0 °F 55% 30.03 in 10.0 mi South 8.1 mph - N/A   Clear
11:35 AM 86.0 °F 89.4 °F 68.0 °F 55% 30.03 in 10.0 mi South 9.2 mph - N/A   Clear
11:55 AM 87.8 °F 91.4 °F 68.0 °F 52% 30.02 in 10.0 mi SSW 12.7 mph 18.4 mph N/A   Clear
12:15 PM 87.8 °F 92.6 °F 69.8 °F 55% 30.02 in 10.0 mi SSE 10.4 mph - N/A   Clear
12:35 PM 87.8 °F 91.4 °F 68.0 °F 52% 30.01 in 10.0 mi South 9.2 mph - N/A   Clear
12:55 PM 87.8 °F 91.4 °F 68.0 °F 52% 30.01 in 10.0 mi SSE 11.5 mph - N/A   Clear
1:15 PM 87.8 °F 91.4 °F 68.0 °F 52% 30.00 in 10.0 mi SSW 9.2 mph - N/A   Clear
1:35 PM 89.6 °F 94.7 °F 69.8 °F 52% 30.00 in 10.0 mi South 11.5 mph - N/A   Clear
1:55 PM 89.6 °F 93.4 °F 68.0 °F 49% 30.00 in 10.0 mi South 11.5 mph - N/A   Clear
2:15 PM 89.6 °F 93.4 °F 68.0 °F 49% 29.99 in 10.0 mi South 6.9 mph - N/A   Clear
2:35 PM 89.6 °F 94.7 °F 69.8 °F 52% 29.99 in 10.0 mi SSE 10.4 mph - N/A   Clear
2:55 PM 89.6 °F 93.4 °F 68.0 °F 49% 29.99 in 10.0 mi South 8.1 mph - N/A   Clear
3:15 PM 89.6 °F 93.4 °F 68.0 °F 49% 29.98 in 10.0 mi SSE 6.9 mph - N/A   Scattered Clouds
3:35 PM 89.6 °F 93.4 °F 68.0 °F 49% 29.98 in 10.0 mi SE 10.4 mph 16.1 mph N/A   Clear
3:55 PM 89.6 °F 94.7 °F 69.8 °F 52% 29.97 in 10.0 mi SSE 10.4 mph - N/A   Clear
4:15 PM 89.6 °F 93.4 °F 68.0 °F 49% 29.97 in 10.0 mi SE 9.2 mph - N/A   Scattered Clouds
4:35 PM 91.4 °F 95.4 °F 68.0 °F 46% 29.97 in 10.0 mi SSE 11.5 mph - N/A   Scattered Clouds
4:55 PM 91.4 °F 96.8 °F 69.8 °F 49% 29.97 in 10.0 mi SSE 6.9 mph - N/A   Scattered Clouds
5:15 PM 91.4 °F 95.4 °F 68.0 °F 46% 29.97 in 10.0 mi South 9.2 mph - N/A   Clear
5:35 PM 89.6 °F 93.4 °F 68.0 °F 49% 29.96 in 10.0 mi South 8.1 mph - N/A   Clear
5:55 PM 91.4 °F 96.8 °F 69.8 °F 49% 29.96 in 10.0 mi SSE 8.1 mph - N/A   Clear
6:15 PM 91.4 °F 95.4 °F 68.0 °F 46% 29.95 in 10.0 mi SSE 9.2 mph - N/A   Clear
6:35 PM 89.6 °F 93.4 °F 68.0 °F 49% 29.95 in 10.0 mi South 8.1 mph - N/A   Clear
6:55 PM 89.6 °F 93.4 °F 68.0 °F 49% 29.95 in 10.0 mi South 8.1 mph - N/A   Clear
7:15 PM 89.6 °F 94.7 °F 69.8 °F 52% 29.95 in 10.0 mi SE 5.8 mph - N/A   Clear
7:35 PM 87.8 °F 92.6 °F 69.8 °F 55% 29.95 in 10.0 mi SE 6.9 mph - N/A   Clear
7:55 PM 86.0 °F 89.4 °F 68.0 °F 55% 29.95 in 10.0 mi SE 6.9 mph - N/A   Clear
8:15 PM 84.2 °F 87.3 °F 68.0 °F 58% 29.95 in 10.0 mi SE 6.9 mph - N/A   Clear
8:35 PM 82.4 °F 86.3 °F 69.8 °F 66% 29.96 in 10.0 mi ESE 5.8 mph - N/A   Clear
8:55 PM 80.6 °F 83.9 °F 69.8 °F 70% 29.95 in 10.0 mi ESE 6.9 mph - N/A   Clear
9:15 PM 80.6 °F 83.9 °F 69.8 °F 70% 29.96 in 10.0 mi SE 8.1 mph - N/A   Clear
9:35 PM 80.6 °F 83.9 °F 69.8 °F 70% 29.97 in 10.0 mi SE 8.1 mph - N/A   Clear
9:55 PM 80.6 °F 83.2 °F 68.0 °F 65% 29.97 in 10.0 mi SE 8.1 mph - N/A   Clear
10:15 PM 80.6 °F 83.2 °F 68.0 °F 65% 29.98 in 10.0 mi SE 9.2 mph - N/A   Clear
10:35 PM 80.6 °F 83.2 °F 68.0 °F 65% 29.99 in 10.0 mi SE 9.2 mph - N/A   Clear
10:55 PM 80.6 °F 83.2 °F 68.0 °F 65% 29.99 in 10.0 mi SE 8.1 mph - N/A   Clear
11:15 PM 78.8 °F - 68.0 °F 69% 29.99 in 10.0 mi SE 6.9 mph - N/A   Clear
11:35 PM 78.8 °F - 68.0 °F 69% 30.00 in 10.0 mi SE 9.2 mph - N/A   Clear
11:55 PM 78.8 °F - 68.0 °F 69% 30.00 in 10.0 mi SSE 9.2 mph - N/A   Clear